^^

..:: Storico WU ::..




Lo storico viene creato da WUnderground con i dati che la stazione Meteomincio invia al loro server. L' aggiornamento viene fatto ogni 5 minuti circa, tuttavia possono esserci intervalli pił ampi a causa di errori, interruzioni di servizio o problemi nell' invio tramite FTP.


Storico stazione MeteoMincio
Giorno Sommario per Giugno 06, 2022 Unità:  Metrico    Inglese   Entrambi
Giorno Settimana Mese Anno
  Max: Min: Media:
Temperatura: 31.0 °C 18.0 °C 25.1 °C
Dew Point: 21.0 °C 15.0 °C 18.1 °C
Umidità: 82% 53% 66%
Velocità vento: 13km/h 2km/h 7.1km/h
Raffica: 23km/h - -
Direzione- - SSE
Pressione: 1015.1 hPa 1011.5 hPa -
Precipitazioni: 0.00 mm    
 
 
Tabulato Dati per Giugno 06, 2022
Ora Temperatura Dew Point Pressione Direzione Velocità vento Raffica Umidità Intensità pioggia (oraria) Info solare Situazione
00:04 21.0 °C 16.0 °C 1013.4 hPa West 6 km/h 8 km/h 76% 0.00 mm 0.00 W/m2 unknown
00:09 21.0 °C 16.0 °C 1013.5 hPa West 5 km/h 8 km/h 78% 0.00 mm 0.00 W/m2 unknown
00:14 20.0 °C 16.0 °C 1013.6 hPa West 6 km/h 8 km/h 78% 0.00 mm 0.00 W/m2 unknown
00:19 20.0 °C 16.0 °C 1013.5 hPa West 7 km/h 8 km/h 78% 0.00 mm 0.00 W/m2 unknown
00:24 20.0 °C 17.0 °C 1013.5 hPa WNW 7 km/h 10 km/h 78% 0.00 mm 0.00 W/m2 unknown
00:29 21.0 °C 17.0 °C 1013.5 hPa WNW 7 km/h 9 km/h 78% 0.00 mm 0.00 W/m2 unknown
00:34 21.0 °C 16.0 °C 1013.5 hPa WNW 7 km/h 11 km/h 77% 0.00 mm 0.00 W/m2 unknown
00:39 21.0 °C 16.0 °C 1013.5 hPa WNW 8 km/h 11 km/h 77% 0.00 mm 0.00 W/m2 unknown
00:44 21.0 °C 16.0 °C 1013.4 hPa WNW 8 km/h 11 km/h 77% 0.00 mm 0.00 W/m2 unknown
00:49 21.0 °C 16.0 °C 1013.5 hPa WNW 8 km/h 11 km/h 77% 0.00 mm 0.00 W/m2 unknown
00:54 21.0 °C 16.0 °C 1013.6 hPa WNW 8 km/h 11 km/h 77% 0.00 mm 0.00 W/m2 unknown
00:59 21.0 °C 16.0 °C 1013.6 hPa West 6 km/h 11 km/h 78% 0.00 mm 0.00 W/m2 unknown
01:04 20.0 °C 16.0 °C 1013.6 hPa WSW 6 km/h 8 km/h 78% 0.00 mm 0.00 W/m2 unknown
01:09 20.0 °C 16.0 °C 1013.6 hPa WSW 5 km/h 6 km/h 78% 0.00 mm 0.00 W/m2 unknown
01:14 20.0 °C 16.0 °C 1013.8 hPa WSW 5 km/h 6 km/h 79% 0.00 mm 0.00 W/m2 unknown
01:19 20.0 °C 16.0 °C 1013.8 hPa WSW 5 km/h 8 km/h 79% 0.00 mm 0.00 W/m2 unknown
01:24 20.0 °C 16.0 °C 1013.8 hPa WSW 6 km/h 8 km/h 79% 0.00 mm 0.00 W/m2 unknown
01:29 20.0 °C 16.0 °C 1013.8 hPa West 5 km/h 8 km/h 79% 0.00 mm 0.00 W/m2 unknown
01:34 20.0 °C 16.0 °C 1013.7 hPa West 5 km/h 8 km/h 79% 0.00 mm 0.00 W/m2 unknown
01:39 20.0 °C 16.0 °C 1013.7 hPa WNW 5 km/h 8 km/h 79% 0.00 mm 0.00 W/m2 unknown
01:44 20.0 °C 16.0 °C 1013.7 hPa WNW 5 km/h 8 km/h 79% 0.00 mm 0.00 W/m2 unknown
01:49 20.0 °C 16.0 °C 1013.7 hPa WNW 3 km/h 8 km/h 79% 0.00 mm 0.00 W/m2 unknown
01:54 20.0 °C 16.0 °C 1013.6 hPa WNW 5 km/h 6 km/h 78% 0.00 mm 0.00 W/m2 unknown
01:59 20.0 °C 16.0 °C 1013.6 hPa NW 6 km/h 8 km/h 77% 0.00 mm 0.00 W/m2 unknown
02:04 20.0 °C 16.0 °C 1013.6 hPa WNW 6 km/h 8 km/h 77% 0.00 mm 0.00 W/m2 unknown
02:09 20.0 °C 16.0 °C 1013.7 hPa WNW 5 km/h 8 km/h 77% 0.00 mm 0.00 W/m2 unknown
02:13 20.0 °C 16.0 °C 1013.7 hPa West 4 km/h 8 km/h 76% 0.00 mm 0.00 W/m2 unknown
02:18 20.0 °C 16.0 °C 1013.7 hPa West 5 km/h 6 km/h 77% 0.00 mm 0.00 W/m2 unknown
02:24 20.0 °C 16.0 °C 1013.7 hPa NW 5 km/h 6 km/h 76% 0.00 mm 0.00 W/m2 unknown
02:29 20.0 °C 16.0 °C 1013.7 hPa NW 6 km/h 8 km/h 76% 0.00 mm 0.00 W/m2 unknown
02:34 20.0 °C 16.0 °C 1013.7 hPa WNW 7 km/h 8 km/h 75% 0.00 mm 0.00 W/m2 unknown
02:39 20.0 °C 16.0 °C 1013.7 hPa NW 6 km/h 14 km/h 74% 0.00 mm 0.00 W/m2 unknown
02:44 20.0 °C 16.0 °C 1013.7 hPa NW 8 km/h 15 km/h 74% 0.00 mm 0.00 W/m2 unknown
02:49 20.0 °C 15.0 °C 1013.8 hPa NW 8 km/h 15 km/h 73% 0.00 mm 0.00 W/m2 unknown
02:54 21.0 °C 15.0 °C 1013.8 hPa NNW 8 km/h 14 km/h 73% 0.00 mm 0.00 W/m2 unknown
02:59 21.0 °C 15.0 °C 1013.8 hPa NNW 8 km/h 11 km/h 72% 0.00 mm 0.00 W/m2 unknown
03:04 21.0 °C 15.0 °C 1013.8 hPa NNW 9 km/h 15 km/h 71% 0.00 mm 0.00 W/m2 unknown
03:09 21.0 °C 15.0 °C 1013.7 hPa NNW 9 km/h 15 km/h 70% 0.00 mm 0.00 W/m2 unknown
03:14 21.0 °C 15.0 °C 1013.7 hPa NNW 9 km/h 15 km/h 70% 0.00 mm 0.00 W/m2 unknown
03:19 21.0 °C 15.0 °C 1013.6 hPa NW 8 km/h 15 km/h 69% 0.00 mm 0.00 W/m2 unknown
03:24 21.0 °C 15.0 °C 1013.6 hPa NNW 8 km/h 14 km/h 69% 0.00 mm 0.00 W/m2 unknown
03:29 21.0 °C 15.0 °C 1013.6 hPa NW 6 km/h 10 km/h 68% 0.00 mm 0.00 W/m2 unknown
03:34 21.0 °C 15.0 °C 1013.6 hPa NW 5 km/h 8 km/h 67% 0.00 mm 0.00 W/m2 unknown
03:39 21.0 °C 15.0 °C 1013.5 hPa WNW 5 km/h 8 km/h 67% 0.00 mm 0.00 W/m2 unknown
03:44 21.0 °C 15.0 °C 1013.5 hPa WNW 4 km/h 6 km/h 69% 0.00 mm 0.00 W/m2 unknown
03:49 21.0 °C 15.0 °C 1013.4 hPa WNW 5 km/h 8 km/h 70% 0.00 mm 0.00 W/m2 unknown
03:54 21.0 °C 15.0 °C 1013.4 hPa West 6 km/h 8 km/h 71% 0.00 mm 0.00 W/m2 unknown
03:58 20.0 °C 15.0 °C 1013.3 hPa West 6 km/h 8 km/h 72% 0.00 mm 0.00 W/m2 unknown
04:03 20.0 °C 15.0 °C 1013.4 hPa West 6 km/h 8 km/h 73% 0.00 mm 0.00 W/m2 unknown
04:08 20.0 °C 15.0 °C 1013.4 hPa West 5 km/h 8 km/h 73% 0.00 mm 0.00 W/m2 unknown
04:14 20.0 °C 15.0 °C 1013.4 hPa WNW 5 km/h 6 km/h 74% 0.00 mm 0.00 W/m2 unknown
04:18 20.0 °C 15.0 °C 1013.4 hPa WNW 6 km/h 8 km/h 74% 0.00 mm 0.00 W/m2 unknown
04:24 20.0 °C 15.0 °C 1013.5 hPa WNW 6 km/h 10 km/h 73% 0.00 mm 0.00 W/m2 unknown
04:28 20.0 °C 15.0 °C 1013.5 hPa NW 7 km/h 10 km/h 72% 0.00 mm 0.00 W/m2 unknown
04:33 20.0 °C 15.0 °C 1013.5 hPa NW 7 km/h 9 km/h 73% 0.00 mm 0.00 W/m2 unknown
04:39 20.0 °C 15.0 °C 1013.5 hPa WNW 5 km/h 10 km/h 74% 0.00 mm 0.00 W/m2 unknown
04:44 20.0 °C 15.0 °C 1013.5 hPa WNW 5 km/h 6 km/h 74% 0.00 mm 0.00 W/m2 unknown
04:48 20.0 °C 15.0 °C 1013.5 hPa WNW 5 km/h 6 km/h 74% 0.00 mm 0.00 W/m2 unknown
04:53 19.0 °C 15.0 °C 1013.5 hPa West 5 km/h 6 km/h 74% 0.00 mm 0.00 W/m2 unknown
04:58 19.0 °C 15.0 °C 1013.5 hPa WSW 5 km/h 8 km/h 75% 0.00 mm 0.00 W/m2 unknown
05:00 19.0 °C 15.0 °C 1013.5 hPa West 5 km/h 8 km/h 75% 0.00 mm 0.00 W/m2 unknown
05:09 19.0 °C 15.0 °C 1013.6 hPa West 7 km/h 8 km/h 76% 0.00 mm 0.00 W/m2 unknown
05:14 20.0 °C 15.0 °C 1013.6 hPa WNW 9 km/h 11 km/h 76% 0.00 mm 0.00 W/m2 unknown
05:19 20.0 °C 15.0 °C 1013.6 hPa WNW 9 km/h 11 km/h 74% 0.00 mm 0.00 W/m2 unknown
05:24 20.0 °C 15.0 °C 1013.6 hPa West 8 km/h 11 km/h 74% 0.00 mm 0.00 W/m2 unknown
05:28 20.0 °C 15.0 °C 1013.7 hPa WSW 8 km/h 11 km/h 76% 0.00 mm 0.00 W/m2 unknown
05:34 19.0 °C 15.0 °C 1013.8 hPa West 8 km/h 6 km/h 78% 0.00 mm 0.00 W/m2 unknown
05:39 19.0 °C 15.0 °C 1013.8 hPa WNW 5 km/h 8 km/h 78% 0.00 mm 5.00 W/m2 unknown
05:44 19.0 °C 15.0 °C 1013.8 hPa WNW 5 km/h 8 km/h 78% 0.00 mm 7.00 W/m2 unknown
05:49 19.0 °C 15.0 °C 1013.8 hPa WNW 5 km/h 8 km/h 78% 0.00 mm 11.00 W/m2 unknown
05:54 19.0 °C 15.0 °C 1013.8 hPa West 7 km/h 10 km/h 79% 0.00 mm 12.00 W/m2 unknown
05:59 18.0 °C 15.0 °C 1013.8 hPa WSW 8 km/h 10 km/h 80% 0.00 mm 14.00 W/m2 unknown
06:03 18.0 °C 15.0 °C 1013.8 hPa West 8 km/h 10 km/h 80% 0.00 mm 14.00 W/m2 unknown
06:09 18.0 °C 15.0 °C 1013.8 hPa West 8 km/h 10 km/h 82% 0.00 mm 19.00 W/m2 unknown
06:13 18.0 °C 15.0 °C 1013.7 hPa West 8 km/h 10 km/h 82% 0.00 mm 21.00 W/m2 unknown
06:18 18.0 °C 15.0 °C 1013.8 hPa WNW 8 km/h 10 km/h 81% 0.00 mm 23.00 W/m2 unknown
06:24 19.0 °C 15.0 °C 1013.8 hPa West 8 km/h 10 km/h 81% 0.00 mm 35.00 W/m2 unknown
06:29 19.0 °C 15.0 °C 1013.9 hPa WNW 7 km/h 10 km/h 80% 0.00 mm 44.00 W/m2 unknown
06:34 19.0 °C 15.0 °C 1013.8 hPa WNW 7 km/h 11 km/h 79% 0.00 mm 53.00 W/m2 unknown
06:39 19.0 °C 15.0 °C 1013.8 hPa WNW 8 km/h 11 km/h 78% 0.00 mm 62.00 W/m2 unknown
06:44 19.0 °C 15.0 °C 1013.8 hPa West 8 km/h 11 km/h 78% 0.00 mm 74.00 W/m2 unknown
06:49 20.0 °C 15.0 °C 1013.8 hPa WNW 7 km/h 9 km/h 77% 0.00 mm 84.00 W/m2 unknown
06:54 20.0 °C 16.0 °C 1013.9 hPa West 5 km/h 8 km/h 77% 0.00 mm 97.00 W/m2 unknown
06:59 20.0 °C 16.0 °C 1013.9 hPa WNW 6 km/h 10 km/h 77% 0.00 mm 113.00 W/m2 unknown
07:04 20.0 °C 16.0 °C 1013.9 hPa WNW 8 km/h 10 km/h 76% 0.00 mm 128.00 W/m2 unknown
07:09 20.0 °C 16.0 °C 1013.9 hPa WNW 8 km/h 10 km/h 75% 0.00 mm 144.00 W/m2 unknown
07:14 20.0 °C 16.0 °C 1013.8 hPa WNW 8 km/h 10 km/h 75% 0.00 mm 151.00 W/m2 unknown
07:19 21.0 °C 16.0 °C 1013.9 hPa WNW 8 km/h 10 km/h 74% 0.00 mm 169.00 W/m2 unknown
07:24 21.0 °C 16.0 °C 1013.9 hPa NNW 6 km/h 10 km/h 74% 0.00 mm 186.00 W/m2 unknown
07:29 21.0 °C 16.0 °C 1013.9 hPa NW 6 km/h 10 km/h 73% 0.00 mm 200.00 W/m2 unknown
07:34 22.0 °C 16.0 °C 1014.0 hPa NW 6 km/h 10 km/h 72% 0.00 mm 213.00 W/m2 unknown
07:39 22.0 °C 16.0 °C 1014.1 hPa NW 7 km/h 11 km/h 71% 0.00 mm 227.00 W/m2 unknown
07:44 22.0 °C 17.0 °C 1014.2 hPa NW 7 km/h 11 km/h 71% 0.00 mm 239.00 W/m2 unknown
07:49 22.0 °C 17.0 °C 1014.3 hPa NNW 8 km/h 11 km/h 71% 0.00 mm 251.00 W/m2 unknown
07:54 22.0 °C 17.0 °C 1014.4 hPa North 7 km/h 10 km/h 71% 0.00 mm 265.00 W/m2 unknown
07:59 23.0 °C 17.0 °C 1014.4 hPa NNW 5 km/h 10 km/h 70% 0.00 mm 276.00 W/m2 unknown
08:04 23.0 °C 17.0 °C 1014.4 hPa North 7 km/h 10 km/h 71% 0.00 mm 288.00 W/m2 unknown
08:09 23.0 °C 17.0 °C 1014.4 hPa North 7 km/h 11 km/h 71% 0.00 mm 304.00 W/m2 unknown
08:14 23.0 °C 17.0 °C 1014.4 hPa North 7 km/h 11 km/h 70% 0.00 mm 318.00 W/m2 unknown
08:19 23.0 °C 18.0 °C 1014.5 hPa NNE 6 km/h 11 km/h 70% 0.00 mm 330.00 W/m2 unknown
08:24 24.0 °C 18.0 °C 1014.5 hPa NNE 8 km/h 11 km/h 70% 0.00 mm 346.00 W/m2 unknown
08:29 24.0 °C 18.0 °C 1014.5 hPa NNE 8 km/h 11 km/h 70% 0.00 mm 359.00 W/m2 unknown
08:34 24.0 °C 18.0 °C 1014.6 hPa NNE 8 km/h 11 km/h 71% 0.00 mm 371.00 W/m2 unknown
08:39 24.0 °C 18.0 °C 1014.7 hPa NNE 8 km/h 11 km/h 71% 0.00 mm 383.00 W/m2 unknown
08:44 24.0 °C 18.0 °C 1014.7 hPa NNE 9 km/h 13 km/h 71% 0.00 mm 397.00 W/m2 unknown
08:49 24.0 °C 18.0 °C 1014.7 hPa NNE 9 km/h 13 km/h 72% 0.00 mm 413.00 W/m2 unknown
08:54 24.0 °C 18.0 °C 1014.8 hPa NNE 10 km/h 13 km/h 70% 0.00 mm 427.00 W/m2 unknown
08:59 24.0 °C 18.0 °C 1014.9 hPa NNE 10 km/h 13 km/h 70% 0.00 mm 445.00 W/m2 unknown
09:04 24.0 °C 19.0 °C 1014.9 hPa NNE 8 km/h 11 km/h 71% 0.00 mm 457.00 W/m2 unknown
09:09 24.0 °C 18.0 °C 1014.9 hPa NE 8 km/h 11 km/h 70% 0.00 mm 468.00 W/m2 unknown
09:14 24.0 °C 18.0 °C 1014.8 hPa NNE 8 km/h 10 km/h 70% 0.00 mm 483.00 W/m2 unknown
09:19 24.0 °C 18.0 °C 1014.8 hPa NE 8 km/h 11 km/h 69% 0.00 mm 499.00 W/m2 unknown
09:24 25.0 °C 18.0 °C 1014.8 hPa NNE 8 km/h 13 km/h 69% 0.00 mm 513.00 W/m2 unknown
09:29 25.0 °C 18.0 °C 1014.9 hPa NE 9 km/h 13 km/h 68% 0.00 mm 527.00 W/m2 unknown
09:34 25.0 °C 18.0 °C 1014.9 hPa NE 10 km/h 13 km/h 67% 0.00 mm 538.00 W/m2 unknown
09:39 25.0 °C 18.0 °C 1014.9 hPa NE 10 km/h 13 km/h 68% 0.00 mm 555.00 W/m2 unknown
09:44 25.0 °C 18.0 °C 1014.9 hPa NE 8 km/h 13 km/h 68% 0.00 mm 561.00 W/m2 unknown
09:45 25.0 °C 18.0 °C 1014.9 hPa ENE 5 km/h 13 km/h 67% 0.00 mm 571.00 W/m2 unknown
09:54 25.0 °C 19.0 °C 1015.0 hPa NE 5 km/h 13 km/h 67% 0.00 mm 596.00 W/m2 unknown
09:59 26.0 °C 19.0 °C 1015.0 hPa NNE 8 km/h 11 km/h 66% 0.00 mm 613.00 W/m2 unknown
10:04 26.0 °C 18.0 °C 1015.0 hPa ENE 8 km/h 11 km/h 65% 0.00 mm 613.00 W/m2 unknown
10:09 26.0 °C 18.0 °C 1015.0 hPa East 8 km/h 13 km/h 64% 0.00 mm 629.00 W/m2 unknown
10:14 26.0 °C 18.0 °C 1015.1 hPa ENE 9 km/h 13 km/h 63% 0.00 mm 598.00 W/m2 unknown
10:19 26.0 °C 19.0 °C 1015.1 hPa ENE 9 km/h 13 km/h 63% 0.00 mm 657.00 W/m2 unknown
10:24 26.0 °C 19.0 °C 1015.0 hPa ENE 10 km/h 13 km/h 63% 0.00 mm 664.00 W/m2 unknown
10:29 26.0 °C 19.0 °C 1015.0 hPa NNE 10 km/h 13 km/h 65% 0.00 mm 680.00 W/m2 unknown
10:34 26.0 °C 18.0 °C 1015.0 hPa East 8 km/h 13 km/h 61% 0.00 mm 698.00 W/m2 unknown
10:39 26.0 °C 18.0 °C 1015.0 hPa ENE 8 km/h 13 km/h 63% 0.00 mm 619.00 W/m2 unknown
10:44 27.0 °C 19.0 °C 1015.0 hPa NE 8 km/h 11 km/h 63% 0.00 mm 686.00 W/m2 unknown
10:49 27.0 °C 19.0 °C 1015.0 hPa ENE 7 km/h 11 km/h 62% 0.00 mm 696.00 W/m2 unknown
10:54 27.0 °C 18.0 °C 1015.0 hPa ENE 6 km/h 11 km/h 61% 0.00 mm 675.00 W/m2 unknown
10:59 26.0 °C 18.0 °C 1015.0 hPa NNE 7 km/h 13 km/h 61% 0.00 mm 691.00 W/m2 unknown
11:04 27.0 °C 19.0 °C 1015.0 hPa NNE 8 km/h 13 km/h 62% 0.00 mm 668.00 W/m2 unknown
11:09 27.0 °C 19.0 °C 1015.0 hPa NE 8 km/h 13 km/h 61% 0.00 mm 673.00 W/m2 unknown
11:14 27.0 °C 19.0 °C 1015.0 hPa ESE 5 km/h 11 km/h 64% 0.00 mm 754.00 W/m2 unknown
11:19 27.0 °C 19.0 °C 1015.0 hPa NE 7 km/h 13 km/h 61% 0.00 mm 763.00 W/m2 unknown
11:24 27.0 °C 19.0 °C 1015.0 hPa ESE 8 km/h 13 km/h 60% 0.00 mm 791.00 W/m2 unknown
11:29 28.0 °C 19.0 °C 1014.9 hPa NE 8 km/h 13 km/h 61% 0.00 mm 791.00 W/m2 unknown
11:34 28.0 °C 19.0 °C 1014.8 hPa NE 9 km/h 13 km/h 60% 0.00 mm 826.00 W/m2 unknown
11:39 28.0 °C 19.0 °C 1014.8 hPa East 8 km/h 13 km/h 58% 0.00 mm 819.00 W/m2 unknown
11:44 28.0 °C 19.0 °C 1014.8 hPa East 9 km/h 15 km/h 62% 0.00 mm 807.00 W/m2 unknown
11:49 28.0 °C 19.0 °C 1014.8 hPa NNE 8 km/h 15 km/h 60% 0.00 mm 719.00 W/m2 unknown
11:54 28.0 °C 19.0 °C 1014.7 hPa ENE 11 km/h 15 km/h 60% 0.00 mm 700.00 W/m2 unknown
11:59 28.0 °C 19.0 °C 1014.7 hPa East 10 km/h 16 km/h 60% 0.00 mm 684.00 W/m2 unknown
12:04 28.0 °C 19.0 °C 1014.6 hPa East 10 km/h 17 km/h 60% 0.00 mm 626.00 W/m2 unknown
12:09 27.0 °C 19.0 °C 1014.6 hPa East 10 km/h 16 km/h 61% 0.00 mm 677.00 W/m2 unknown
12:14 28.0 °C 19.0 °C 1014.6 hPa East 8 km/h 14 km/h 60% 0.00 mm 856.00 W/m2 unknown
12:19 28.0 °C 20.0 °C 1014.5 hPa ENE 10 km/h 13 km/h 61% 0.00 mm 891.00 W/m2 unknown
12:24 29.0 °C 20.0 °C 1014.5 hPa ENE 10 km/h 13 km/h 61% 0.00 mm 891.00 W/m2 unknown
12:29 28.0 °C 20.0 °C 1014.4 hPa East 9 km/h 19 km/h 60% 0.00 mm 854.00 W/m2 unknown
12:34 29.0 °C 20.0 °C 1014.4 hPa East 9 km/h 19 km/h 60% 0.00 mm 647.00 W/m2 unknown
12:39 28.0 °C 20.0 °C 1014.4 hPa ESE 8 km/h 19 km/h 60% 0.00 mm 761.00 W/m2 unknown
12:44 28.0 °C 19.0 °C 1014.4 hPa East 10 km/h 13 km/h 59% 0.00 mm 761.00 W/m2 unknown
12:49 29.0 °C 19.0 °C 1014.3 hPa East 10 km/h 14 km/h 58% 0.00 mm 721.00 W/m2 unknown
12:54 28.0 °C 20.0 °C 1014.3 hPa ESE 10 km/h 15 km/h 59% 0.00 mm 763.00 W/m2 unknown
12:59 29.0 °C 20.0 °C 1014.3 hPa ESE 9 km/h 14 km/h 59% 0.00 mm 861.00 W/m2 unknown
13:04 29.0 °C 20.0 °C 1014.3 hPa ESE 9 km/h 23 km/h 59% 0.00 mm 902.00 W/m2 unknown
13:09 29.0 °C 20.0 °C 1014.2 hPa East 11 km/h 23 km/h 58% 0.00 mm 902.00 W/m2 unknown
13:14 29.0 °C 20.0 °C 1014.2 hPa East 11 km/h 23 km/h 57% 0.00 mm 889.00 W/m2 unknown
13:19 30.0 °C 20.0 °C 1014.2 hPa ENE 12 km/h 23 km/h 57% 0.00 mm 868.00 W/m2 unknown
13:24 30.0 °C 20.0 °C 1014.2 hPa East 11 km/h 23 km/h 56% 0.00 mm 863.00 W/m2 unknown
13:29 30.0 °C 19.0 °C 1014.2 hPa East 11 km/h 16 km/h 55% 0.00 mm 865.00 W/m2 unknown
13:34 30.0 °C 20.0 °C 1014.2 hPa East 13 km/h 17 km/h 55% 0.00 mm 865.00 W/m2 unknown
13:39 30.0 °C 20.0 °C 1014.2 hPa East 11 km/h 19 km/h 55% 0.00 mm 865.00 W/m2 unknown
13:44 30.0 °C 20.0 °C 1014.1 hPa ENE 11 km/h 19 km/h 55% 0.00 mm 865.00 W/m2 unknown
13:49 30.0 °C 20.0 °C 1014.1 hPa East 11 km/h 19 km/h 55% 0.00 mm 875.00 W/m2 unknown
13:54 30.0 °C 20.0 °C 1014.0 hPa ENE 11 km/h 19 km/h 56% 0.00 mm 895.00 W/m2 unknown
13:59 30.0 °C 20.0 °C 1014.0 hPa ENE 11 km/h 18 km/h 56% 0.00 mm 900.00 W/m2 unknown
14:04 30.0 °C 20.0 °C 1014.0 hPa ESE 11 km/h 18 km/h 55% 0.00 mm 933.00 W/m2 unknown
14:09 30.0 °C 20.0 °C 1013.9 hPa ESE 10 km/h 14 km/h 57% 0.00 mm 243.00 W/m2 unknown
14:14 30.0 °C 20.0 °C 1013.9 hPa ENE 8 km/h 11 km/h 57% 0.00 mm 972.00 W/m2 unknown
14:19 30.0 °C 20.0 °C 1013.8 hPa East 7 km/h 17 km/h 57% 0.00 mm 972.00 W/m2 unknown
14:24 30.0 °C 20.0 °C 1013.8 hPa East 8 km/h 17 km/h 57% 0.00 mm 984.00 W/m2 unknown
14:29 30.0 °C 21.0 °C 1013.8 hPa SE 8 km/h 16 km/h 57% 0.00 mm 984.00 W/m2 unknown
14:34 30.0 °C 20.0 °C 1013.8 hPa East 8 km/h 13 km/h 58% 0.00 mm 285.00 W/m2 unknown
14:39 30.0 °C 20.0 °C 1013.8 hPa East 10 km/h 14 km/h 59% 0.00 mm 350.00 W/m2 unknown
14:44 29.0 °C 20.0 °C 1013.7 hPa ESE 12 km/h 15 km/h 59% 0.00 mm 350.00 W/m2 unknown
14:49 29.0 °C 20.0 °C 1013.7 hPa ESE 11 km/h 15 km/h 60% 0.00 mm 248.00 W/m2 unknown
14:54 29.0 °C 20.0 °C 1013.6 hPa ESE 11 km/h 15 km/h 60% 0.00 mm 898.00 W/m2 unknown
14:59 30.0 °C 20.0 °C 1013.5 hPa East 10 km/h 13 km/h 59% 0.00 mm 932.00 W/m2 unknown
15:04 31.0 °C 21.0 °C 1013.4 hPa ESE 6 km/h 13 km/h 56% 0.00 mm 944.00 W/m2 unknown
15:09 31.0 °C 21.0 °C 1013.4 hPa East 8 km/h 13 km/h 55% 0.00 mm 944.00 W/m2 unknown
15:14 31.0 °C 20.0 °C 1013.4 hPa East 8 km/h 14 km/h 57% 0.00 mm 229.00 W/m2 unknown
15:19 30.0 °C 21.0 °C 1013.3 hPa East 8 km/h 15 km/h 61% 0.00 mm 584.00 W/m2 unknown
15:24 30.0 °C 21.0 °C 1013.3 hPa ESE 8 km/h 15 km/h 61% 0.00 mm 954.00 W/m2 unknown
15:29 30.0 °C 21.0 °C 1013.2 hPa East 9 km/h 14 km/h 60% 0.00 mm 921.00 W/m2 unknown
15:34 30.0 °C 21.0 °C 1013.1 hPa East 11 km/h 15 km/h 59% 0.00 mm 601.00 W/m2 unknown
15:39 30.0 °C 21.0 °C 1013.1 hPa ESE 11 km/h 17 km/h 60% 0.00 mm 258.00 W/m2 unknown
15:44 29.0 °C 21.0 °C 1013.1 hPa ESE 11 km/h 17 km/h 61% 0.00 mm 202.00 W/m2 unknown
15:49 29.0 °C 21.0 °C 1013.1 hPa ESE 11 km/h 15 km/h 63% 0.00 mm 230.00 W/m2 unknown
15:54 29.0 °C 21.0 °C 1013.1 hPa ESE 10 km/h 15 km/h 62% 0.00 mm 230.00 W/m2 unknown
15:59 29.0 °C 21.0 °C 1013.0 hPa East 9 km/h 13 km/h 62% 0.00 mm 232.00 W/m2 unknown
16:04 29.0 °C 21.0 °C 1013.0 hPa ESE 9 km/h 13 km/h 62% 0.00 mm 239.00 W/m2 unknown
16:09 29.0 °C 21.0 °C 1012.9 hPa ESE 8 km/h 13 km/h 61% 0.00 mm 239.00 W/m2 unknown
16:14 29.0 °C 21.0 °C 1012.9 hPa ESE 5 km/h 8 km/h 62% 0.00 mm 246.00 W/m2 unknown
16:19 29.0 °C 21.0 °C 1012.9 hPa ESE 5 km/h 8 km/h 63% 0.00 mm 255.00 W/m2 unknown
16:24 29.0 °C 21.0 °C 1012.9 hPa ESE 5 km/h 10 km/h 63% 0.00 mm 264.00 W/m2 unknown
16:29 29.0 °C 21.0 °C 1012.9 hPa ESE 5 km/h 10 km/h 63% 0.00 mm 281.00 W/m2 unknown
16:33 29.0 °C 21.0 °C 1012.9 hPa ESE 5 km/h 10 km/h 62% 0.00 mm 311.00 W/m2 unknown
16:39 29.0 °C 21.0 °C 1012.9 hPa ESE 3 km/h 6 km/h 63% 0.00 mm 775.00 W/m2 unknown
16:44 30.0 °C 21.0 °C 1012.9 hPa ESE 4 km/h 8 km/h 62% 0.00 mm 802.00 W/m2 unknown
16:49 30.0 °C 21.0 °C 1012.8 hPa ESE 4 km/h 8 km/h 59% 0.00 mm 784.00 W/m2 unknown
16:54 30.0 °C 21.0 °C 1012.8 hPa SE 5 km/h 13 km/h 57% 0.00 mm 582.00 W/m2 unknown
16:59 30.0 °C 21.0 °C 1012.7 hPa SE 7 km/h 13 km/h 57% 0.00 mm 422.00 W/m2 unknown
17:04 30.0 °C 20.0 °C 1012.7 hPa SE 6 km/h 13 km/h 56% 0.00 mm 494.00 W/m2 unknown
17:09 30.0 °C 21.0 °C 1012.7 hPa SSE 5 km/h 8 km/h 57% 0.00 mm 547.00 W/m2 unknown
17:14 30.0 °C 21.0 °C 1012.7 hPa ESE 4 km/h 8 km/h 57% 0.00 mm 529.00 W/m2 unknown
17:19 30.0 °C 21.0 °C 1012.7 hPa SE 4 km/h 11 km/h 57% 0.00 mm 613.00 W/m2 unknown
17:24 31.0 °C 21.0 °C 1012.7 hPa ESE 5 km/h 11 km/h 56% 0.00 mm 594.00 W/m2 unknown
17:29 31.0 °C 20.0 °C 1012.6 hPa SE 7 km/h 11 km/h 55% 0.00 mm 649.00 W/m2 unknown
17:34 31.0 °C 20.0 °C 1012.4 hPa SE 7 km/h 13 km/h 53% 0.00 mm 643.00 W/m2 unknown
17:39 31.0 °C 20.0 °C 1012.4 hPa East 6 km/h 13 km/h 54% 0.00 mm 573.00 W/m2 unknown
17:44 30.0 °C 20.0 °C 1012.3 hPa East 8 km/h 14 km/h 55% 0.00 mm 570.00 W/m2 unknown
17:48 30.0 °C 20.0 °C 1012.3 hPa ESE 11 km/h 17 km/h 55% 0.00 mm 548.00 W/m2 unknown
17:54 30.0 °C 20.0 °C 1012.2 hPa East 12 km/h 17 km/h 54% 0.00 mm 512.00 W/m2 unknown
17:59 30.0 °C 20.0 °C 1012.2 hPa ESE 11 km/h 16 km/h 54% 0.00 mm 471.00 W/m2 unknown
18:04 30.0 °C 20.0 °C 1012.2 hPa East 8 km/h 15 km/h 54% 0.00 mm 445.00 W/m2 unknown
18:09 30.0 °C 20.0 °C 1012.2 hPa East 10 km/h 15 km/h 54% 0.00 mm 417.00 W/m2 unknown
18:14 30.0 °C 20.0 °C 1012.1 hPa ESE 10 km/h 14 km/h 54% 0.00 mm 401.00 W/m2 unknown
18:19 30.0 °C 20.0 °C 1012.0 hPa East 10 km/h 11 km/h 54% 0.00 mm 380.00 W/m2 unknown
18:24 30.0 °C 20.0 °C 1012.0 hPa East 10 km/h 13 km/h 53% 0.00 mm 362.00 W/m2 unknown
18:29 30.0 °C 20.0 °C 1011.9 hPa East 10 km/h 14 km/h 53% 0.00 mm 343.00 W/m2 unknown
18:34 30.0 °C 20.0 °C 1011.9 hPa East 10 km/h 15 km/h 54% 0.00 mm 323.00 W/m2 unknown
18:38 30.0 °C 20.0 °C 1011.8 hPa ESE 10 km/h 15 km/h 54% 0.00 mm 311.00 W/m2 unknown
18:44 30.0 °C 20.0 °C 1011.8 hPa ESE 8 km/h 15 km/h 54% 0.00 mm 295.00 W/m2 unknown
18:49 30.0 °C 20.0 °C 1011.8 hPa East 8 km/h 14 km/h 54% 0.00 mm 279.00 W/m2 unknown
18:54 30.0 °C 20.0 °C 1011.8 hPa ESE 9 km/h 13 km/h 54% 0.00 mm 267.00 W/m2 unknown
18:59 30.0 °C 19.0 °C 1011.8 hPa ESE 10 km/h 11 km/h 54% 0.00 mm 253.00 W/m2 unknown
19:04 30.0 °C 20.0 °C 1011.7 hPa ESE 8 km/h 11 km/h 55% 0.00 mm 239.00 W/m2 unknown
19:09 30.0 °C 20.0 °C 1011.7 hPa ESE 4 km/h 6 km/h 55% 0.00 mm 221.00 W/m2 unknown
19:14 30.0 °C 20.0 °C 1011.6 hPa East 5 km/h 10 km/h 56% 0.00 mm 204.00 W/m2 unknown
19:19 30.0 °C 20.0 °C 1011.6 hPa ESE 5 km/h 10 km/h 56% 0.00 mm 186.00 W/m2 unknown
19:24 30.0 °C 20.0 °C 1011.6 hPa ESE 7 km/h 14 km/h 56% 0.00 mm 186.00 W/m2 unknown
19:29 30.0 °C 20.0 °C 1011.6 hPa ESE 8 km/h 15 km/h 57% 0.00 mm 165.00 W/m2 unknown
19:34 29.0 °C 20.0 °C 1011.5 hPa ESE 8 km/h 15 km/h 58% 0.00 mm 146.00 W/m2 unknown
19:39 29.0 °C 20.0 °C 1011.5 hPa East 8 km/h 14 km/h 59% 0.00 mm 127.00 W/m2 unknown
19:44 29.0 °C 20.0 °C 1011.5 hPa East 8 km/h 11 km/h 59% 0.00 mm 51.00 W/m2 unknown
19:49 29.0 °C 20.0 °C 1011.5 hPa ESE 6 km/h 8 km/h 59% 0.00 mm 44.00 W/m2 unknown
19:54 29.0 °C 20.0 °C 1011.6 hPa ESE 5 km/h 8 km/h 59% 0.00 mm 32.00 W/m2 unknown
19:59 29.0 °C 20.0 °C 1011.6 hPa East 4 km/h 8 km/h 59% 0.00 mm 28.00 W/m2 unknown
20:04 28.0 °C 20.0 °C 1011.6 hPa East 5 km/h 6 km/h 59% 0.00 mm 25.00 W/m2 unknown
20:09 28.0 °C 20.0 °C 1011.6 hPa East 4 km/h 8 km/h 59% 0.00 mm 18.00 W/m2 unknown
20:14 28.0 °C 20.0 °C 1011.5 hPa East 4 km/h 6 km/h 61% 0.00 mm 18.00 W/m2 unknown
20:19 28.0 °C 20.0 °C 1011.6 hPa East 4 km/h 6 km/h 62% 0.00 mm 23.00 W/m2 unknown
20:24 28.0 °C 20.0 °C 1011.7 hPa East 3 km/h 6 km/h 62% 0.00 mm 26.00 W/m2 unknown
20:29 28.0 °C 20.0 °C 1011.7 hPa East 4 km/h 6 km/h 61% 0.00 mm 26.00 W/m2 unknown
20:34 28.0 °C 20.0 °C 1011.7 hPa ENE 3 km/h 6 km/h 61% 0.00 mm 23.00 W/m2 unknown
20:39 28.0 °C 20.0 °C 1011.7 hPa ENE 3 km/h 6 km/h 61% 0.00 mm 21.00 W/m2 unknown
20:44 28.0 °C 19.0 °C 1011.6 hPa ENE 3 km/h 6 km/h 61% 0.00 mm 19.00 W/m2 unknown
20:49 28.0 °C 20.0 °C 1011.6 hPa East 3 km/h 6 km/h 62% 0.00 mm 12.00 W/m2 unknown
20:54 27.0 °C 20.0 °C 1011.6 hPa East 4 km/h 8 km/h 62% 0.00 mm 9.00 W/m2 unknown
20:59 27.0 °C 19.0 °C 1011.5 hPa ESE 6 km/h 10 km/h 63% 0.00 mm 5.00 W/m2 unknown
21:04 27.0 °C 19.0 °C 1011.5 hPa East 7 km/h 11 km/h 64% 0.00 mm 0.00 W/m2 unknown
21:09 27.0 °C 19.0 °C 1011.6 hPa ESE 7 km/h 11 km/h 65% 0.00 mm 0.00 W/m2 unknown
21:14 27.0 °C 19.0 °C 1011.7 hPa ESE 5 km/h 10 km/h 65% 0.00 mm 0.00 W/m2 unknown
21:19 26.0 °C 19.0 °C 1011.8 hPa ESE 2 km/h 5 km/h 66% 0.00 mm 0.00 W/m2 unknown
21:24 26.0 °C 19.0 °C 1011.8 hPa ESE 3 km/h 4 km/h 66% 0.00 mm 0.00 W/m2 unknown
21:29 26.0 °C 19.0 °C 1011.8 hPa ESE 3 km/h 4 km/h 66% 0.00 mm 0.00 W/m2 unknown
21:34 26.0 °C 19.0 °C 1011.7 hPa ESE 4 km/h 6 km/h 65% 0.00 mm 0.00 W/m2 unknown
21:39 26.0 °C 19.0 °C 1011.7 hPa East 4 km/h 6 km/h 66% 0.00 mm 0.00 W/m2 unknown
21:44 26.0 °C 19.0 °C 1011.7 hPa East 4 km/h 6 km/h 66% 0.00 mm 0.00 W/m2 unknown
21:49 26.0 °C 19.0 °C 1011.8 hPa East 3 km/h 6 km/h 66% 0.00 mm 0.00 W/m2 unknown
21:52 26.0 °C 19.0 °C 1011.7 hPa East 3 km/h 6 km/h 65% 0.00 mm 0.00 W/m2 unknown
21:59 26.0 °C 19.0 °C 1012.0 hPa East 5 km/h 8 km/h 65% 0.00 mm 0.00 W/m2 unknown
22:04 26.0 °C 19.0 °C 1012.0 hPa ESE 6 km/h 8 km/h 65% 0.00 mm 0.00 W/m2 unknown
22:09 26.0 °C 19.0 °C 1011.9 hPa ESE 6 km/h 8 km/h 66% 0.00 mm 0.00 W/m2 unknown
22:14 25.0 °C 19.0 °C 1011.9 hPa ESE 5 km/h 8 km/h 66% 0.00 mm 0.00 W/m2 unknown
22:19 25.0 °C 18.0 °C 1012.0 hPa East 5 km/h 7 km/h 66% 0.00 mm 0.00 W/m2 unknown
22:24 25.0 °C 18.0 °C 1012.0 hPa East 5 km/h 6 km/h 66% 0.00 mm 0.00 W/m2 unknown
22:29 25.0 °C 18.0 °C 1012.0 hPa East 3 km/h 8 km/h 66% 0.00 mm 0.00 W/m2 unknown
22:34 25.0 °C 18.0 °C 1012.0 hPa East 5 km/h 8 km/h 66% 0.00 mm 0.00 W/m2 unknown
22:39 25.0 °C 18.0 °C 1012.0 hPa East 5 km/h 8 km/h 66% 0.00 mm 0.00 W/m2 unknown
22:44 25.0 °C 18.0 °C 1012.0 hPa East 5 km/h 8 km/h 66% 0.00 mm 0.00 W/m2 unknown
22:49 25.0 °C 18.0 °C 1012.0 hPa East 6 km/h 8 km/h 67% 0.00 mm 0.00 W/m2 unknown
22:54 25.0 °C 18.0 °C 1012.1 hPa East 6 km/h 10 km/h 67% 0.00 mm 0.00 W/m2 unknown
22:59 25.0 °C 18.0 °C 1012.1 hPa East 6 km/h 10 km/h 68% 0.00 mm 0.00 W/m2 unknown
23:04 25.0 °C 18.0 °C 1012.1 hPa East 6 km/h 10 km/h 68% 0.00 mm 0.00 W/m2 unknown
23:09 24.0 °C 18.0 °C 1012.2 hPa East 5 km/h 10 km/h 68% 0.00 mm 0.00 W/m2 unknown
23:14 24.0 °C 18.0 °C 1012.2 hPa East 5 km/h 10 km/h 68% 0.00 mm 0.00 W/m2 unknown
23:19 24.0 °C 18.0 °C 1012.2 hPa East 5 km/h 8 km/h 68% 0.00 mm 0.00 W/m2 unknown
23:24 24.0 °C 18.0 °C 1012.1 hPa East 5 km/h 8 km/h 69% 0.00 mm 0.00 W/m2 unknown
23:29 24.0 °C 18.0 °C 1012.1 hPa ENE 5 km/h 8 km/h 69% 0.00 mm 0.00 W/m2 unknown
23:34 24.0 °C 18.0 °C 1012.1 hPa ENE 5 km/h 8 km/h 69% 0.00 mm 0.00 W/m2 unknown
23:39 24.0 °C 18.0 °C 1012.1 hPa ENE 4 km/h 6 km/h 69% 0.00 mm 0.00 W/m2 unknown
23:44 24.0 °C 18.0 °C 1012.1 hPa NE 5 km/h 6 km/h 69% 0.00 mm 0.00 W/m2 unknown
23:49 24.0 °C 18.0 °C 1012.2 hPa ENE 4 km/h 6 km/h 69% 0.00 mm 0.00 W/m2 unknown
23:54 24.0 °C 18.0 °C 1012.2 hPa ENE 4 km/h 6 km/h 69% 0.00 mm 0.00 W/m2 unknown
23:59 23.0 °C 17.0 °C 1012.2 hPa ENE 4 km/h 6 km/h 69% 0.00 mm 0.00 W/m2 unknown
Stazione Meteorologica MeteoMincio Rivalta s/M (MN)
Con i complimenti di Weather Underground - 4 mb



METEO PILLOLE
La temperatura più bassa in assoluto
Vostok - Antartide
il 21 luglio 1983 presso la stazione russa di Vostok 3420m slm venne registrata la temperatura esterna di -89,2° C.
Share

Non seguire questo link o sarai bannato dal sito!